Change the Weather History Date:

Thursday, March 1, 2012

  Actual Average Record
Temperature  
Mean Temperature 73 °F -  
Max Temperature 78 °F 68 °F 86 °F (1955)
Min Temperature 68 °F 44 °F 23 °F (1937)
Cooling Degree Days 8    
Growing Degree Days 23 (Base 50)    
Moisture  
Dew Point 63 °F    
Average Humidity 73    
Maximum Humidity 83    
Minimum Humidity 57    
Precipitation  
Precipitation 0.00 in - - ()
Sea Level Pressure  
Sea Level Pressure 29.89 in    
Wind  
Wind Speed 8 mph (SSW)    
Max Wind Speed 18 mph    
Max Gust Speed 25 mph    
Visibility 10 miles    
Events      
Averages and records for this station are not official NWS values.
T = Trace of Precipitation, MM = Missing Value Source: NWS Daily Summary

Daily Weather History Graph

Daily Weather History Graph

Search for Another Location

Airport or City:

Trip Planner

Search our weather history database for the weather conditions in past years. The results will help you decide how hot, cold, wet, or windy it might be!

Date:

Astronomy

Mar. 01, 2012 Rise Set
Actual Time 6:31 AM CST 6:03 PM CST
Civil Twilight 6:07 AM CST 6:28 PM CST
Nautical Twilight 5:38 AM CST 6:56 PM CST
Astronomical Twilight 5:10 AM CST 7:24 PM CST
Moon 11:40 AM CST (3/1) 1:14 AM CST (3/1)
Length of Visible Light 12h 20m
Length of Day
11h 32m
First Quarter, 57% of the Moon is Illuminated
Mar 1
First Quarter
Mar 8
Full
Mar 14
Last Quarter
Mar 22
New
Mar 30
First Quarter

Hourly Weather History & Observations

Time (CST) Temp. Dew Point Humidity Pressure Visibility Wind Dir Wind Speed Gust Speed Precip Events Conditions
12:35 AM 69.8 °F 62.6 °F 78% 29.95 in 10.0 mi SSW 9.2 mph 16.1 mph N/A   Overcast
12:55 AM 69.8 °F 62.6 °F 78% 29.96 in 10.0 mi SW 10.4 mph 18.4 mph N/A   Overcast
1:15 AM 69.8 °F 62.6 °F 78% 29.96 in 10.0 mi SW 8.1 mph - N/A   Overcast
1:35 AM 69.8 °F 62.6 °F 78% 29.96 in 10.0 mi SW 9.2 mph - N/A   Overcast
1:55 AM 69.8 °F 62.6 °F 78% 29.96 in 10.0 mi WSW 8.1 mph - N/A   Overcast
2:15 AM 68.0 °F 62.6 °F 83% 29.96 in 10.0 mi WSW 5.8 mph - N/A   Overcast
2:35 AM 68.0 °F 62.6 °F 83% 29.96 in 10.0 mi SW 5.8 mph - N/A   Overcast
3:15 AM 68.0 °F 62.6 °F 83% 29.95 in 10.0 mi SSW 4.6 mph - N/A   Mostly Cloudy
3:35 AM 68.0 °F 62.6 °F 83% 29.95 in 10.0 mi SSW 3.5 mph - N/A   Overcast
3:55 AM 68.0 °F 62.6 °F 83% 29.95 in 10.0 mi SW 3.5 mph - N/A   Overcast
4:15 AM 68.0 °F 62.6 °F 83% 29.94 in 10.0 mi South 6.9 mph - N/A   Mostly Cloudy
4:35 AM 68.0 °F 62.6 °F 83% 29.94 in 10.0 mi SSW 3.5 mph - N/A   Mostly Cloudy
4:55 AM 68.0 °F 62.6 °F 83% 29.95 in 10.0 mi SW 3.5 mph - N/A   Overcast
5:15 AM 68.0 °F 62.6 °F 83% 29.95 in 10.0 mi Calm Calm - N/A   Mostly Cloudy
5:36 AM 68.0 °F 62.6 °F 83% 29.95 in 10.0 mi South 3.5 mph - N/A   Mostly Cloudy
5:55 AM 68.0 °F 62.6 °F 83% 29.95 in 10.0 mi SSW 4.6 mph - N/A   Overcast
6:15 AM 68.0 °F 62.6 °F 83% 29.95 in 9.0 mi SSW 4.6 mph - N/A   Overcast
6:35 AM 68.0 °F 62.6 °F 83% 29.95 in 9.0 mi SW 4.6 mph - N/A   Mostly Cloudy
7:15 AM 68.0 °F 62.6 °F 83% 29.96 in 9.0 mi South 4.6 mph - N/A   Mostly Cloudy
7:35 AM 68.0 °F 62.6 °F 83% 29.97 in 8.0 mi SSW 5.8 mph - N/A   Mostly Cloudy
7:55 AM 69.8 °F 62.6 °F 78% 29.96 in 9.0 mi SW 5.8 mph - N/A   Overcast
8:15 AM 69.8 °F 64.4 °F 83% 29.96 in 10.0 mi WSW 6.9 mph - N/A   Overcast
8:35 AM 69.8 °F 62.6 °F 78% 29.97 in 10.0 mi SW 5.8 mph - N/A   Overcast
8:55 AM 69.8 °F 64.4 °F 83% 29.97 in 9.0 mi WSW 4.6 mph - N/A   Overcast
9:15 AM 69.8 °F 64.4 °F 83% 29.98 in 9.0 mi WSW 5.8 mph - N/A   Overcast
9:35 AM 71.6 °F 64.4 °F 78% 29.98 in 10.0 mi WSW 6.9 mph - N/A   Overcast
9:55 AM 71.6 °F 64.4 °F 78% 29.98 in 10.0 mi WSW 8.1 mph - N/A   Overcast
10:15 AM 71.6 °F 64.4 °F 78% 29.97 in 10.0 mi WSW 5.8 mph - N/A   Overcast
10:35 AM 71.6 °F 62.6 °F 73% 29.97 in 10.0 mi WSW 9.2 mph - N/A   Overcast
11:15 AM 75.2 °F 64.4 °F 69% 29.96 in 10.0 mi South 12.7 mph - N/A   Mostly Cloudy
11:55 AM 75.2 °F 64.4 °F 69% 29.93 in 10.0 mi SW 15.0 mph - N/A   Scattered Clouds
12:15 PM 77.0 °F 64.4 °F 65% 29.91 in 10.0 mi SW 10.4 mph 17.3 mph N/A   Mostly Cloudy
1:35 PM 77.0 °F 64.4 °F 65% 29.88 in 10.0 mi SSW 11.5 mph 21.9 mph N/A   Mostly Cloudy
1:55 PM 77.0 °F 64.4 °F 65% 29.88 in 10.0 mi SSW 18.4 mph 21.9 mph N/A   Mostly Cloudy
2:15 PM 77.0 °F 64.4 °F 65% 29.86 in 10.0 mi SW 10.4 mph 21.9 mph N/A   Scattered Clouds
2:35 PM 78.8 °F 64.4 °F 61% 29.86 in 10.0 mi SSW 9.2 mph 18.4 mph N/A   Mostly Cloudy
3:15 PM 78.8 °F 64.4 °F 61% 29.84 in 10.0 mi SW 17.3 mph 24.2 mph N/A   Mostly Cloudy
3:35 PM 78.8 °F 62.6 °F 57% 29.84 in 10.0 mi SSW 11.5 mph 20.7 mph N/A   Partly Cloudy
3:55 PM 78.8 °F 64.4 °F 61% 29.83 in 10.0 mi SSW 12.7 mph 20.7 mph N/A   Partly Cloudy
4:15 PM 78.8 °F 64.4 °F 61% 29.83 in 10.0 mi SSW 17.3 mph 25.3 mph N/A   Partly Cloudy
4:35 PM 78.8 °F 64.4 °F 61% 29.82 in 10.0 mi SSW 13.8 mph - N/A   Partly Cloudy
4:55 PM 78.8 °F 62.6 °F 57% 29.81 in 10.0 mi SW 11.5 mph 17.3 mph N/A   Partly Cloudy
5:35 PM 78.8 °F 62.6 °F 57% 29.81 in 10.0 mi SSW 12.7 mph 25.3 mph N/A   Scattered Clouds
5:55 PM 77.0 °F 62.6 °F 61% 29.81 in 10.0 mi SSW 10.4 mph - N/A   Scattered Clouds
6:15 PM 75.2 °F 62.6 °F 65% 29.82 in 10.0 mi SSW 13.8 mph 20.7 mph N/A   Scattered Clouds
6:36 PM 75.2 °F 60.8 °F 61% 29.82 in 10.0 mi South 15.0 mph 23.0 mph N/A   Clear
6:55 PM 73.4 °F 60.8 °F 65% 29.82 in 10.0 mi SSW 12.7 mph 18.4 mph N/A   Clear
7:15 PM 73.4 °F 60.8 °F 65% 29.82 in 10.0 mi SSW 12.7 mph 18.4 mph N/A   Clear
7:35 PM 73.4 °F 60.8 °F 65% 29.82 in 10.0 mi SSW 10.4 mph - N/A   Clear
7:55 PM 73.4 °F 60.8 °F 65% 29.81 in 10.0 mi SSW 11.5 mph 19.6 mph N/A   Clear
8:15 PM 71.6 °F 60.8 °F 69% 29.82 in 10.0 mi South 10.4 mph - N/A   Clear
8:35 PM 71.6 °F 60.8 °F 69% 29.82 in 10.0 mi South 10.4 mph 18.4 mph N/A   Clear
8:55 PM 71.6 °F 60.8 °F 69% 29.81 in 10.0 mi South 13.8 mph 19.6 mph N/A   Clear
9:15 PM 71.6 °F 60.8 °F 69% 29.81 in 10.0 mi South 12.7 mph 19.6 mph N/A   Clear
9:35 PM 69.8 °F 60.8 °F 73% 29.81 in 10.0 mi South 10.4 mph 17.3 mph N/A   Partly Cloudy
9:55 PM 69.8 °F 60.8 °F 73% 29.81 in 10.0 mi South 10.4 mph 19.6 mph N/A   Mostly Cloudy
10:15 PM 69.8 °F 60.8 °F 73% 29.81 in 10.0 mi South 10.4 mph - N/A   Overcast
10:35 PM 69.8 °F 60.8 °F 73% 29.82 in 10.0 mi South 9.2 mph 17.3 mph N/A   Overcast
10:55 PM 69.8 °F 60.8 °F 73% 29.82 in 10.0 mi South 12.7 mph 19.6 mph N/A   Overcast
11:15 PM 69.8 °F 60.8 °F 73% 29.81 in 10.0 mi South 9.2 mph - N/A   Overcast
11:35 PM 69.8 °F 60.8 °F 73% 29.81 in 10.0 mi South 9.2 mph - N/A   Overcast
11:55 PM 69.8 °F 60.8 °F 73% 29.81 in 10.0 mi South 8.1 mph - N/A   Overcast